Tracking 20040 objects as of 18-Nov-2019
Live streaming from Space Station
objects crossing your sky now

SKIPPER

Track SKIPPER now!
10-day predictions
SKIPPER is classified as:


NORAD ID: 23752
Int'l Code: 1995-072B
Perigee: 809.5 km
Apogee: 816.2 km
Inclination: 99.0 °
Period: 101.0 minutes
Semi major axis: 7183 km
RCS: 0.7042 m2 (medium)
Launch date: December 28, 1995
Source: United States (US)
Launch site: TYURATAM MISSILE AND SPACE COMPLEX (TTMTR)
aabbcc
Your satellite tracking list
Your tracking list is empty




NASA's NSSDC Master Catalog

Two Line Element Set (TLE):
1 23752U 95072B   19321.93828523 -.00000032 +00000-0 +63204-5 0  9994
2 23752 098.9992 321.9318 0004642 232.7634 127.3121 14.25825749242841
Source of the keplerian elements: AFSPC